Terminal Aerodrome Forecast
Issued by NWS Wilmington, OH

Current Version | Previous Version | Text Only | Print | Product List | Glossary Off
Versions: 1 2 3 4 5 6 7 8 9 10 11 12 13 14 15 16 17 18 19 20 21 22 23 24 25 26 27 28 29 30

000
FTUS41 KILN 031700 RRA
TAFCVG
TAF
KCVG 031744Z 0318/0424 20010G18KT 4SM -RA BR OVC008
      TEMPO 0318/0322 1 1/2SM -RA BR OVC004
     FM032200 25011G18KT 2SM -RA BR OVC004
     FM040600 30008KT 2SM -RA BR OVC006
     FM041500 33012KT 1 1/2SM -SN BR OVC004=

USA.gov is the U.S. government's official web portal to all federal, state and local government web resources and services.